Orbital Elements at Epoch 2459000.5 (2020-May-31.0) TDB
Reference: JPL 15 (heliocentric ecliptic J2000)
Element | Value | Uncertainty (1-sigma) | Units |
e | .1446365372334039 | 5.8142e-08 | |
a | 2.430787516446235 | 1.333e-08 | au |
q | 2.079206827317265 | 1.4092e-07 | au |
i | 2.093794483670492 | 6.4396e-06 | deg |
node | 16.32463088431149 | 0.00012308 | deg |
peri | 5.830029813022745 | 0.00012453 | deg |
M | 160.9580496704961 | 1.7209e-05 | deg |
tp | 2458381.587686637731 (2018-Sep-20.08768664) | 6.5178e-05 | TDB |
period | 1384.2639946653 3.79 | 1.1386e-05 3.117e-08 | d yr |
n | .2600659999735412 | 2.1392e-09 | deg/d |
Q | 2.782368205575204 | 1.5258e-08 | au |
|
| | Orbit Determination Parameters
Additional Information
|